Location: Aiyede
(8.4833°N, 4.4500°E)
Time: 09:38:54
(UTC+00:00)

YAOGAN 1 - Pass Details

Date: 24 September 2020
Orbit: 618 x 620 km, 97.9° (Epoch: 21 October)

Event Time Altitude Azimuth Distance (km) Brightness Sun altitude
Rises 18:18:33 0° 153° (SSE) 2,888 5.7 -11.1°
Reaches altitude 10° 18:20:52 10° 144° (SE) 1,982 4.8 -11.7°
Maximum altitude 18:24:49 36° 77° (ENE) 976 3.1 -12.7°
Drops below altitude 10° 18:28:47 10° 10° (N) 1,979 5.1 -13.7°
Sets 18:31:05 0° 2° (N) 2,883 6.0 -14.2°
